Location: Unspecified
(0.0000°N, 0.0000°E)
Time: 00:46:25
(UTC+00:00)

SRMSAT - Pass Details

Date: 30 March 2019
Orbit: 848 x 866 km, 20.0° (Epoch: 19 July)

Event Time Altitude Azimuth Distance (km) Brightness Sun altitude
Exits shadow 05:16:50 - 317° (NW) 3,362 ? -11.9°
Reaches altitude 10° 05:21:18 10° 349° (NNW) 2,464 ? -10.8°
Maximum altitude 05:23:15 12° 8° (N) 2,355 ? -10.3°
Drops below altitude 10° 05:25:12 10° 28° (NNE) 2,469 ? -9.8°
Sets 05:29:49 0° 59° (ENE) 3,411 ? -8.7°
